Wind_Speed
10 10 11 11 11 10 10 10 10 10 10 10 10 10 10 10 10 11 11 11 12 12 13 14 14 15 15 16 16 17 17 17 18 18 18 18 19 19 19 19 20 20 21
9 9 10 10 10 10 10 10 10 11 11 11 11 11 12 12 12 12 13 13 13 13 14 14 15 15 16 16 17 17 18 18 19 19 20 20 20 20 21 21 21 22 22
8 8 9 9 10 10 11 11 11 12 12 12 12 13 13 13 13 13 13 13 13 13 13 14 14 14 15 15 16 17 17 18 19 19 20 20 21 21 22 23 23 23 24
8 9 9 10 11 11 11 12 12 13 13 13 13 13 13 13 13 13 13 13 13 13 13 13 14 14 15 15 16 16 17 18 18 19 20 21 21 22 23 24 24 25 25
10 10 11 11 12 12 12 13 13 14 14 14 14 14 13 13 13 13 12 12 12 12 12 13 13 14 14 14 15 16 16 17 18 19 20 21 21 22 23 24 25 26 26
11 12 12 13 13 14 14 14 14 14 15 14 14 13 13 13 13 13 12 12 12 13 13 13 13 13 14 14 14 15 16 16 17 18 19 20 21 22 23 24 25 26 27
13 13 14 14 14 15 15 15 15 15 15 14 14 14 13 13 13 13 13 13 13 13 13 13 13 13 14 14 15 15 16 17 18 18 19 20 21 22 23 24 25 26 27
14 14 15 15 15 16 16 16 16 15 15 15 14 14 14 14 13 14 13 13 13 14 14 14 14 15 15 15 16 16 17 18 19 19 20 21 22 23 24 25 26 27 28
15 15 15 16 16 16 16 17 17 16 16 15 15 15 15 14 14 14 14 14 15 15 15 15 16 16 16 17 17 17 18 19 19 20 21 22 22 23 24 25 26 27 28
16 16 16 17 17 18 18 18 18 17 17 17 16 16 16 16 16 16 16 16 16 16 16 17 17 17 17 18 18 19 19 20 20 21 22 23 23 24 25 26 27 28 29
17 17 17 18 18 18 19 19 18 18 18 18 18 18 18 18 18 18 18 18 18 18 18 19 19 19 20 20 21 21 21 22 22 23 24 24 25 26 26 27 28 29 30
17 18 18 19 19 19 20 20 20 20 20 20 20 20 20 20 20 20 21 21 21 21 21 21 22 22 23 23 23 24 24 25 25 26 27 27 28 28 29 30 31 31 32
19 20 20 20 21 21 21 22 22 22 22 23 23 22 23 23 23 23 23 24 24 24 25 25 25 26 26 27 27 28 28 29 29 29 30 31 31 32 33 33 34 34 35
20 22 22 22 22 23 23 24 24 25 25 25 25 25 26 26 26 27 27 27 27 28 28 29 29 30 30 31 31 32 32 33 33 34 34 35 35 36 36 37 38 38 38
22 23 23 23 24 25 25 26 27 27 28 28 28 29 29 29 30 30 30 31 31 32 32 33 33 34 34 35 35 36 36 37 37 38 38 38 39 39 40 40 41 42 42
22 23 24 25 25 26 27 28 29 30 30 30 31 31 32 32 33 33 34 34 35 36 36 37 37 38 38 39 39 40 40 41 41 41 42 42 43 43 44 44 44 45 45
23 24 25 25 26 27 28 29 30 31 31 32 33 33 34 35 36 37 37 38 39 40 40 40 41 41 42 43 43 44 45 45 45 45 46 46 46 47 47 47 48 48 48
23 23 25 25 26 27 28 29 30 31 32 33 34 35 36 37 38 39 40 41 42 43 43 44 44 45 45 46 47 48 48 48 48 49 49 49 50 50 51 51 51 51 52
23 23 24 25 26 28 29 29 30 31 33 34 35 36 38 39 40 41 41 43 45 45 46 46 47 48 49 50 51 51 52 52 52 52 52 53 53 53 54 54 55 55 55
23 23 24 25 26 27 28 30 31 32 33 34 36 37 39 40 41 42 43 44 46 47 48 49 50 51 51 52 54 54 54 55 55 55 55 55 56 56 57 57 58 58 58
24 24 25 25 26 27 28 29 30 32 33 35 36 38 39 41 43 44 44 45 47 48 49 51 52 53 53 55 56 56 56 57 57 57 57 58 58 59 59 60 60 61 61
25 25 26 27 27 28 29 30 31 32 33 35 37 39 40 42 43 44 45 47 48 50 51 52 54 55 56 57 58 59 58 58 58 59 60 60 60 61 61 62 62 62 63
26 27 27 28 29 29 30 31 32 33 35 36 38 40 41 43 44 46 47 49 50 51 52 54 56 57 58 59 60 61 61 60 60 60 61 62 62 63 63 63 64 64 64
27 28 29 29 30 30 31 32 32 34 35 36 38 40 42 43 45 47 48 50 52 53 54 56 58 59 60 61 62 63 64 64 64 62 61 62 63 64 65 65 66 66 66
29 29 29 30 30 31 31 32 33 34 35 37 38 40 42 44 45 47 49 51 52 54 55 57 59 60 62 63 64 65 66 67 67 67 64 63 64 65 66 67 68 68 68
29 29 29 29 30 31 32 33 34 35 36 38 40 41 43 45 47 49 51 52 54 55 57 59 61 62 64 65 66 67 68 69 70 71 70 68 67 67 68 68 69 69 69
Wind_Direction
248 248 249 248 248 249 251 253 256 256 256 257 258 259 260 261 262 264 264 265 266 266 266 264 262 261 259 258 258 257 255 254 253 252 251 251 251 251 252 252 252 252 252
248 248 249 249 250 251 252 254 257 257 258 259 262 263 264 265 266 268 269 269 268 268 267 267 265 263 261 259 257 256 256 255 254 254 253 253 253 253 254 254 254 254 254
247 249 251 252 253 254 256 259 260 261 262 264 266 267 267 268 269 270 270 270 270 269 268 268 267 267 265 262 260 258 257 256 256 255 255 255 255 255 255 255 256 257 257
252 253 254 256 258 260 261 261 262 264 265 267 268 269 269 269 270 271 271 271 271 271 271 270 269 268 267 265 263 262 260 259 259 258 258 258 258 258 258 258 258 258 258
255 256 258 260 261 262 262 263 264 266 268 269 270 270 269 269 270 271 271 272 273 273 273 273 272 271 270 268 267 266 264 263 262 262 262 262 262 262 261 261 260 260 259
258 259 260 262 263 264 264 265 266 267 269 270 270 271 271 271 272 272 272 273 274 275 275 275 274 274 273 272 271 269 268 268 267 266 266 265 265 265 264 264 263 263 262
260 260 261 262 264 264 265 265 266 267 268 269 269 270 270 271 272 272 273 274 274 275 275 275 275 275 275 274 273 272 272 271 271 271 270 270 269 269 268 267 266 266 265
263 262 263 263 263 263 263 264 266 266 267 267 268 269 270 271 271 272 273 274 274 275 275 275 276 276 276 276 276 275 275 275 274 274 274 273 273 273 272 271 270 269 268
266 265 264 264 265 264 264 264 265 265 266 266 267 268 268 269 270 271 272 273 273 274 275 275 276 277 278 278 278 278 278 277 277 277 277 276 276 275 274 274 273 272 271
268 268 266 265 265 265 265 264 264 264 264 265 265 266 266 267 268 269 270 271 271 272 273 274 275 277 278 278 279 279 279 279 279 280 279 279 279 278 277 277 275 274 273
271 269 267 266 265 265 265 264 263 263 264 264 265 265 265 266 266 267 268 269 269 270 271 273 274 275 277 278 279 280 280 280 281 281 282 282 282 281 281 280 279 278 277
273 271 268 266 265 265 264 263 263 263 263 264 264 264 265 265 266 267 267 268 268 269 270 271 273 274 276 277 278 279 280 281 282 282 283 283 283 283 283 283 283 282 281
274 271 270 268 267 265 264 264 263 263 263 263 263 264 264 265 266 266 267 267 268 268 270 271 272 274 275 276 277 278 279 280 281 282 283 283 284 285 285 285 285 284 284
273 272 271 270 269 268 266 265 264 264 263 263 264 264 264 265 265 266 267 268 269 269 270 272 273 274 275 276 277 278 279 280 281 282 282 283 284 285 285 285 285 285 284
274 274 274 273 270 269 268 266 265 265 265 265 266 266 266 266 266 267 268 269 270 271 272 273 274 275 276 277 278 278 279 281 282 282 283 284 284 285 285 285 286 285 285
276 276 275 274 273 272 270 268 267 267 267 268 268 268 268 268 268 268 269 270 271 272 273 274 275 276 277 278 279 279 280 281 282 283 284 284 285 285 285 285 286 286 285
278 277 276 276 275 274 273 271 271 270 270 270 270 270 270 270 270 270 271 272 272 273 274 275 276 277 277 278 279 280 281 282 283 284 284 285 285 285 285 285 285 286 285
280 278 278 277 276 276 275 274 274 273 273 272 272 272 272 272 272 273 273 274 274 275 276 277 277 278 278 279 280 281 282 283 283 284 284 285 285 285 285 285 285 286 286
282 280 279 278 278 278 277 276 275 275 274 274 274 273 273 274 274 275 275 275 276 277 278 278 278 278 279 279 280 281 282 282 283 283 284 284 284 284 285 285 285 286 286
285 283 281 280 279 279 279 278 278 277 277 277 276 276 276 276 277 277 277 278 278 279 279 280 280 280 280 280 281 281 282 282 282 283 283 283 283 284 284 284 285 285 285
287 286 284 283 282 282 281 281 280 280 280 279 279 279 279 280 280 281 281 281 281 281 281 282 282 281 281 281 281 281 281 281 282 283 282 282 282 283 283 284 284 284 284
289 288 287 286 285 284 283 283 282 282 282 281 281 281 282 282 283 284 284 283 283 283 283 283 283 282 282 281 282 281 281 281 282 282 281 281 282 282 283 283 283 283 283
290 289 289 288 288 287 287 286 285 284 283 283 283 284 284 284 284 285 285 285 284 284 284 284 283 283 283 282 283 283 282 282 280 280 280 281 281 281 281 281 281 281 281
290 290 290 290 290 290 289 288 288 287 286 286 285 285 285 285 285 285 285 284 285 285 285 284 284 284 283 283 283 283 283 283 281 280 279 279 279 279 279 279 279 279 280
291 291 292 292 292 292 292 291 290 289 289 288 288 287 287 287 287 286 286 286 286 285 285 284 284 283 283 283 283 282 282 282 282 282 280 278 277 277 277 277 278 278 279
292 293 293 293 293 293 293 293 293 292 291 291 290 289 289 289 288 288 288 287 287 287 286 285 284 284 284 283 283 282 282 281 281 281 281 280 278 277 276 276 277 277 277
Height
5864 5864 5865 5865 5866 5866 5867 5867 5867 5868 5868 5868 5868 5868 5868 5869 5869 5869 5870 5870 5870 5871 5871 5872 5872 5873 5873 5873 5874 5874 5875 5875 5876 5876 5877 5877 5878 5879 5879 5880 5880 5881 5882
5863 5863 5864 5864 5864 5865 5865 5865 5866 5866 5866 5866 5866 5866 5866 5866 5866 5866 5867 5867 5867 5868 5868 5868 5868 5869 5869 5870 5870 5871 5871 5872 5872 5873 5874 5874 5875 5875 5876 5876 5877 5878 5878
5862 5862 5862 5862 5863 5863 5863 5863 5864 5864 5864 5864 5864 5864 5864 5863 5864 5864 5864 5864 5864 5865 5865 5865 5865 5865 5866 5866 5867 5867 5868 5868 5869 5869 5870 5871 5871 5872 5872 5873 5873 5874 5875
5860 5860 5861 5861 5861 5861 5861 5861 5861 5861 5861 5861 5861 5861 5861 5861 5861 5861 5861 5861 5861 5861 5861 5862 5862 5862 5862 5863 5863 5864 5864 5865 5865 5866 5866 5867 5867 5868 5868 5869 5869 5870 5870
5858 5858 5859 5859 5859 5859 5859 5859 5859 5859 5859 5859 5858 5858 5858 5858 5858 5858 5858 5858 5858 5858 5858 5859 5859 5859 5859 5859 5860 5860 5860 5861 5861 5862 5862 5862 5863 5863 5864 5864 5865 5865 5866
5856 5856 5856 5856 5856 5856 5856 5856 5856 5856 5856 5856 5855 5855 5855 5855 5855 5855 5855 5855 5855 5855 5855 5855 5856 5856 5856 5856 5856 5857 5857 5857 5857 5858 5858 5858 5859 5859 5859 5860 5860 5860 5861
5854 5854 5854 5854 5854 5854 5854 5854 5853 5853 5853 5853 5853 5852 5852 5852 5852 5852 5852 5852 5852 5852 5852 5852 5852 5853 5853 5853 5853 5853 5853 5853 5854 5854 5854 5854 5854 5855 5855 5855 5855 5855 5856
5852 5852 5852 5851 5851 5851 5851 5851 5851 5850 5850 5850 5850 5850 5849 5849 5849 5849 5849 5849 5849 5849 5849 5849 5849 5849 5849 5849 5850 5850 5850 5850 5850 5850 5850 5850 5850 5850 5850 5850 5850 5850 5850
5849 5849 5849 5849 5848 5848 5848 5848 5848 5848 5847 5847 5847 5847 5847 5846 5846 5846 5846 5846 5846 5846 5846 5846 5846 5846 5846 5846 5846 5846 5846 5846 5846 5846 5845 5845 5845 5845 5845 5845 5845 5845 5845
5846 5846 5846 5846 5845 5845 5845 5845 5845 5844 5844 5844 5844 5844 5844 5843 5843 5843 5843 5843 5843 5843 5842 5842 5842 5842 5842 5841 5841 5841 5841 5841 5841 5841 5841 5840 5840 5840 5840 5839 5839 5839 5839
5842 5842 5842 5842 5842 5842 5842 5841 5841 5841 5841 5840 5840 5840 5840 5840 5840 5839 5839 5839 5839 5839 5839 5838 5838 5838 5837 5837 5837 5837 5836 5836 5836 5835 5835 5835 5834 5834 5833 5833 5833 5832 5832
5839 5839 5838 5838 5838 5838 5838 5838 5837 5837 5837 5837 5836 5836 5836 5836 5836 5835 5835 5835 5835 5834 5834 5834 5833 5833 5833 5832 5832 5831 5831 5830 5830 5829 5829 5828 5828 5827 5827 5826 5826 5825 5825
5835 5834 5834 5834 5834 5834 5833 5833 5833 5833 5832 5832 5832 5832 5832 5831 5831 5831 5830 5830 5830 5829 5829 5829 5828 5828 5827 5827 5826 5825 5825 5824 5824 5823 5822 5821 5821 5820 5819 5819 5818 5817 5817
5831 5830 5830 5829 5829 5829 5829 5828 5828 5827 5827 5827 5827 5827 5826 5826 5825 5825 5825 5824 5824 5823 5823 5823 5822 5821 5821 5820 5819 5819 5818 5817 5816 5816 5815 5814 5813 5812 5811 5810 5809 5808 5808
5826 5825 5825 5825 5824 5824 5823 5823 5822 5822 5822 5821 5821 5821 5820 5820 5819 5819 5819 5818 5817 5817 5816 5816 5815 5814 5813 5813 5812 5811 5810 5809 5808 5807 5806 5805 5804 5803 5802 5801 5800 5799 5798
5822 5821 5820 5819 5819 5818 5818 5817 5816 5816 5816 5815 5815 5814 5814 5813 5813 5812 5812 5811 5810 5809 5809 5808 5807 5807 5806 5804 5803 5802 5801 5800 5799 5798 5797 5796 5795 5793 5792 5791 5789 5788 5787
5817 5816 5815 5814 5813 5812 5812 5811 5810 5810 5809 5809 5808 5807 5807 5806 5805 5804 5804 5803 5802 5801 5801 5800 5799 5798 5797 5795 5794 5793 5792 5791 5790 5788 5787 5786 5784 5783 5781 5779 5778 5777 5776
5812 5811 5810 5808 5807 5806 5806 5805 5804 5803 5803 5802 5801 5800 5799 5798 5797 5796 5795 5794 5793 5792 5792 5791 5789 5788 5787 5785 5784 5783 5782 5781 5779 5777 5776 5774 5773 5771 5769 5768 5766 5765 5763
5807 5806 5805 5803 5802 5801 5800 5799 5798 5797 5795 5794 5793 5792 5791 5789 5788 5787 5786 5785 5783 5782 5781 5780 5779 5778 5776 5775 5773 5772 5770 5769 5767 5766 5765 5762 5760 5759 5757 5755 5754 5752 5750
5802 5801 5799 5798 5796 5795 5794 5792 5791 5790 5788 5787 5785 5784 5782 5781 5779 5778 5777 5776 5774 5772 5771 5769 5768 5766 5765 5763 5761 5760 5758 5756 5755 5754 5752 5750 5748 5746 5744 5742 5740 5738 5737
5797 5795 5794 5793 5791 5789 5788 5786 5785 5783 5781 5780 5777 5776 5774 5772 5770 5769 5768 5766 5764 5762 5760 5758 5756 5754 5752 5749 5747 5747 5745 5743 5742 5740 5738 5736 5734 5732 5730 5728 5726 5724 5722
5792 5790 5788 5787 5785 5783 5782 5780 5778 5776 5774 5772 5770 5767 5765 5763 5761 5759 5757 5755 5753 5751 5749 5746 5743 5741 5739 5736 5733 5731 5731 5731 5729 5726 5723 5721 5720 5717 5715 5713 5710 5708 5707
5786 5784 5782 5780 5779 5777 5775 5773 5771 5769 5767 5764 5762 5760 5757 5754 5752 5749 5747 5744 5742 5739 5737 5734 5730 5727 5725 5722 5718 5715 5714 5715 5714 5712 5709 5707 5704 5702 5700 5697 5695 5692 5690
5781 5778 5776 5774 5772 5770 5768 5766 5764 5762 5759 5757 5754 5751 5748 5745 5742 5739 5736 5733 5730 5727 5724 5721 5717 5713 5710 5707 5704 5700 5697 5696 5694 5695 5696 5692 5689 5686 5683 5681 5678 5676 5674
5775 5773 5770 5768 5766 5763 5761 5759 5756 5754 5751 5749 5746 5743 5739 5736 5732 5729 5725 5722 5718 5715 5711 5707 5703 5699 5695 5691 5688 5685 5681 5678 5675 5673 5675 5676 5672 5670 5667 5664 5661 5659 5657
5769 5766 5764 5761 5759 5756 5754 5751 5749 5746 5743 5740 5736 5733 5730 5726 5722 5718 5713 5709 5705 5701 5697 5693 5688 5684 5680 5676 5671 5667 5664 5661 5658 5654 5653 5655 5654 5653 5649 5646 5644 5642 5640